EN

Hourly Weather Lagodzin

Today, 4 August, Wednesday

Time Temperature Precipitation Wind Pressure Humidity
00:00 +17°C° 0 mm 2 mps 758 mmHg 64%
01:00 +17°C° 0 mm 2 mps 758 mmHg 66%
02:00 +18°C° 0 mm 1 mps 758 mmHg 68%
03:00 +18°C° 0 mm 1 mps 758 mmHg 71%
04:00 +18°C° 0 mm 1 mps 758 mmHg 73%
05:00 +18°C° 0.1 mm 1 mps 758 mmHg 74%
06:00 +18°C° 0.1 mm 1 mps 758 mmHg 76%
07:00 +18°C° 0.1 mm 1 mps 758 mmHg 77%
08:00 +19°C° 0.1 mm 1 mps 758 mmHg 73%
09:00 +20°C° 0.1 mm 1 mps 758 mmHg 68%
10:00 +20°C° 0.1 mm 2 mps 758 mmHg 64%
11:00 +21°C° 0.1 mm 2 mps 758 mmHg 59%
12:00 +23°C° 0.1 mm 2 mps 758 mmHg 54%
13:00 +25°C° 0.1 mm 2 mps 757 mmHg 49%
14:00 +24°C° 0.1 mm 2 mps 757 mmHg 49%
15:00 +24°C° 0.1 mm 2 mps 757 mmHg 49%
16:00 +24°C° 0.1 mm 2 mps 757 mmHg 48%
17:00 +24°C° 0 mm 2 mps 757 mmHg 52%
18:00 +23°C° 0 mm 2 mps 757 mmHg 57%
19:00 +21°C° 0 mm 2 mps 757 mmHg 61%
20:00 +20°C° 0 mm 2 mps 757 mmHg 65%
21:00 +19°C° 0 mm 2 mps 757 mmHg 68%
22:00 +18°C° 0 mm 2 mps 757 mmHg 72%
23:00 +17°C° 0 mm 2 mps 757 mmHg 75%

Tomorrow, 5 August, Thursday

Time Temperature Precipitation Wind Pressure Humidity
00:00 +16°C° 0 mm 2 mps 757 mmHg 77%
01:00 +16°C° 0 mm 2 mps 757 mmHg 80%
02:00 +15°C° 0 mm 2 mps 757 mmHg 83%
03:00 +15°C° 0 mm 2 mps 757 mmHg 86%
04:00 +15°C° 0 mm 2 mps 757 mmHg 88%
05:00 +16°C° 0 mm 2 mps 757 mmHg 85%
06:00 +17°C° 0 mm 3 mps 757 mmHg 81%
07:00 +18°C° 0 mm 3 mps 757 mmHg 77%
08:00 +19°C° 0.1 mm 3 mps 756 mmHg 71%
09:00 +21°C° 0.1 mm 3 mps 756 mmHg 65%
10:00 +24°C° 0.1 mm 3 mps 756 mmHg 59%
11:00 +24°C° 0.6 mm 3 mps 756 mmHg 57%
12:00 +25°C° 0.6 mm 3 mps 755 mmHg 55%
13:00 +25°C° 0.6 mm 3 mps 755 mmHg 53%
14:00 +24°C° 0.3 mm 3 mps 755 mmHg 56%
15:00 +24°C° 0.3 mm 3 mps 755 mmHg 58%
16:00 +22°C° 0.3 mm 3 mps 755 mmHg 61%
17:00 +22°C° 0.2 mm 3 mps 754 mmHg 65%
18:00 +21°C° 0.2 mm 2 mps 754 mmHg 68%
19:00 +20°C° 0.2 mm 2 mps 754 mmHg 72%
20:00 +19°C° 0.1 mm 2 mps 754 mmHg 73%
21:00 +20°C° 0.1 mm 1 mps 754 mmHg 75%
22:00 +19°C° 0.1 mm 1 mps 754 mmHg 76%
23:00 +19°C° 0 mm 1 mps 754 mmHg 77%

Day after tomorrow, 6 August, Friday

Time Temperature Precipitation Wind Pressure Humidity
00:00 +19°C° 0 mm 1 mps 754 mmHg 78%
01:00 +18°C° 0 mm 1 mps 754 mmHg 79%
02:00 +18°C° 0.1 mm 1 mps 754 mmHg 81%
03:00 +18°C° 0.1 mm 1 mps 754 mmHg 82%
04:00 +18°C° 0.1 mm 1 mps 754 mmHg 84%
05:00 +18°C° 0.2 mm 1 mps 754 mmHg 84%
06:00 +18°C° 0.2 mm 1 mps 754 mmHg 84%
07:00 +19°C° 0.2 mm 1 mps 754 mmHg 84%
08:00 +20°C° 0.1 mm 1 mps 754 mmHg 79%
09:00 +21°C° 0.1 mm 1 mps 754 mmHg 73%
10:00 +22°C° 0.1 mm 1 mps 754 mmHg 67%
11:00 +23°C° 0.5 mm 1 mps 754 mmHg 63%
12:00 +24°C° 0.5 mm 1 mps 754 mmHg 58%
13:00 +25°C° 0.5 mm 1 mps 754 mmHg 54%
14:00 +25°C° 0.2 mm 1 mps 754 mmHg 52%
15:00 +25°C° 0.2 mm 1 mps 754 mmHg 50%
16:00 +26°C° 0.2 mm 1 mps 754 mmHg 48%
17:00 +25°C° 0 mm 1 mps 754 mmHg 52%
18:00 +24°C° 0 mm 1 mps 754 mmHg 55%
19:00 +23°C° 0 mm 1 mps 754 mmHg 59%
20:00 +22°C° 0 mm 1 mps 754 mmHg 62%
21:00 +21°C° 0 mm 1 mps 754 mmHg 65%
22:00 +18°C° 0 mm 2 mps 755 mmHg 68%
23:00 +18°C° 0 mm 2 mps 755 mmHg 71%

7 August, Saturday

Time Temperature Precipitation Wind Pressure Humidity
00:00 +17°C° 0 mm 2 mps 755 mmHg 74%
01:00 +17°C° 0 mm 2 mps 755 mmHg 76%
02:00 +17°C° 0 mm 2 mps 755 mmHg 78%
03:00 +16°C° 0 mm 2 mps 755 mmHg 80%
04:00 +16°C° 0 mm 2 mps 755 mmHg 82%
05:00 +17°C° 0 mm 2 mps 755 mmHg 78%
06:00 +19°C° 0 mm 2 mps 755 mmHg 74%
07:00 +20°C° 0 mm 2 mps 755 mmHg 71%
08:00 +21°C° 0 mm 2 mps 755 mmHg 65%
09:00 +24°C° 0 mm 2 mps 755 mmHg 58%
10:00 +26°C° 0 mm 2 mps 755 mmHg 52%
11:00 +27°C° 0.1 mm 3 mps 755 mmHg 49%
12:00 +27°C° 0.1 mm 3 mps 754 mmHg 46%
13:00 +28°C° 0.1 mm 3 mps 754 mmHg 43%
14:00 +28°C° 0 mm 3 mps 754 mmHg 43%
15:00 +28°C° 0 mm 2 mps 754 mmHg 43%
16:00 +28°C° 0 mm 2 mps 754 mmHg 42%
17:00 +27°C° 0 mm 2 mps 754 mmHg 47%
18:00 +26°C° 0 mm 2 mps 754 mmHg 52%
19:00 +25°C° 0 mm 1 mps 754 mmHg 57%
20:00 +24°C° 0 mm 1 mps 754 mmHg 58%
21:00 +24°C° 0 mm 2 mps 754 mmHg 60%
22:00 +23°C° 0 mm 2 mps 754 mmHg 62%
23:00 +21°C° 0.1 mm 2 mps 754 mmHg 66%

8 August, Sunday

Time Temperature Precipitation Wind Pressure Humidity
00:00 +21°C° 0.1 mm 2 mps 754 mmHg 70%
01:00 +20°C° 0.1 mm 3 mps 754 mmHg 74%
02:00 +19°C° 0.2 mm 2 mps 755 mmHg 79%
03:00 +19°C° 0.2 mm 2 mps 755 mmHg 85%
04:00 +18°C° 0.2 mm 2 mps 755 mmHg 90%
05:00 +18°C° 0.8 mm 2 mps 755 mmHg 91%
06:00 +18°C° 0.8 mm 2 mps 756 mmHg 92%
07:00 +18°C° 0.8 mm 3 mps 756 mmHg 93%
08:00 +20°C° 0.1 mm 3 mps 756 mmHg 83%
09:00 +21°C° 0.1 mm 4 mps 757 mmHg 72%
10:00 +23°C° 0.1 mm 4 mps 757 mmHg 62%
11:00 +25°C° 0 mm 4 mps 757 mmHg 54%
12:00 +26°C° 0 mm 5 mps 757 mmHg 47%
13:00 +28°C° 0 mm 5 mps 757 mmHg 40%
14:00 +27°C° 0 mm 5 mps 757 mmHg 39%
15:00 +27°C° 0 mm 4 mps 758 mmHg 39%
16:00 +27°C° 0 mm 4 mps 758 mmHg 38%
17:00 +26°C° 0 mm 4 mps 758 mmHg 44%
18:00 +24°C° 0 mm 3 mps 758 mmHg 49%
19:00 +23°C° 0 mm 2 mps 759 mmHg 55%
20:00 +21°C° 0 mm 2 mps 759 mmHg 57%
21:00 +21°C° 0 mm 2 mps 759 mmHg 59%
22:00 +20°C° 0 mm 2 mps 760 mmHg 61%
23:00 +20°C° 0.1 mm 2 mps 760 mmHg 65%

9 August, Monday

Time Temperature Precipitation Wind Pressure Humidity
00:00 +19°C° 0.1 mm 2 mps 760 mmHg 69%
01:00 +19°C° 0.1 mm 2 mps 760 mmHg 73%
02:00 +18°C° 0 mm 2 mps 760 mmHg 78%
03:00 +17°C° 0 mm 2 mps 761 mmHg 82%
04:00 +16°C° 0 mm 2 mps 761 mmHg 86%
05:00 +17°C° 0 mm 2 mps 761 mmHg 83%
06:00 +18°C° 0 mm 3 mps 761 mmHg 80%
07:00 +18°C° 0 mm 3 mps 762 mmHg 77%
08:00 +20°C° 0 mm 3 mps 762 mmHg 69%
09:00 +21°C° 0 mm 4 mps 762 mmHg 60%
10:00 +23°C° 0 mm 4 mps 762 mmHg 52%
11:00 +23°C° 0 mm 4 mps 762 mmHg 48%
12:00 +25°C° 0 mm 5 mps 762 mmHg 43%
13:00 +26°C° 0 mm 5 mps 762 mmHg 38%
14:00 +25°C° 0 mm 4 mps 762 mmHg 41%
15:00 +25°C° 0 mm 3 mps 762 mmHg 43%
16:00 +24°C° 0 mm 3 mps 763 mmHg 46%
17:00 +23°C° 0 mm 2 mps 763 mmHg 48%
18:00 +23°C° 0 mm 1 mps 763 mmHg 50%
19:00 +20°C° 0 mm 0 mps 763 mmHg 53%
20:00 +21°C° 0 mm 1 mps 763 mmHg 55%
21:00 +21°C° 0 mm 1 mps 763 mmHg 56%
22:00 +19°C° 0 mm 2 mps 763 mmHg 58%
23:00 +18°C° 0 mm 2 mps 763 mmHg 63%
Show more